Location: Lucerne Valley
(34.4439°N, 116.9669°E)
Time: 02:20:17
(UTC-08:00)

Tiangong 1 - Pass Details

Date: 10 October 2017
Orbit: 275 x 302 km, 42.8° (Epoch: 14 December)

Event Time Altitude Azimuth Distance (km) Brightness Sun altitude
Rises 04:02:42 0° 298° (WNW) 2,064 6.0 -16.9°
Reaches altitude 10° 04:05:21 10° 326° (NW) 1,213 4.1 -17.5°
Maximum altitude 04:06:54 14° 1° (N) 1,010 3.2 -17.8°
Enters shadow 04:06:58 14° 2° (N) 1,010 3.2 -17.8°
